Regional Weather Roundup
Issued by NWS Columbia, SC

Home | Current Version | Previous Version | Text Only | Print | Product List | Glossary On
Versions: 1 2 3 4 5 6 7 8 9 10 11 12 13 14 15 16 17 18 19 20 21 22 23 24 25 26 27 28 29 30 31 32 33 34 35 36 37 38 39 40 41 42 43 44 45 46 47 48 49 50
560
ASUS42 KCAE 111910
RWRCAE
REGIONAL WEATHER ROUNDUP
NATIONAL WEATHER SERVICE COLUMBIA SC
200 PM EST THU FEB 11 2016

NOTE: "FAIR" INDICATES FEW OR NO CLOUDS BELOW 12,000 FEET WITH NO
SIGNIFICANT WEATHER AND/OR OBSTRUCTIONS TO VISIBILITY.

NOT ALL STATIONS ARE QUALITY CONTROLLED BY THE NATIONAL
WEATHER SERVICE. USE DATA WITH CAUTION...ESPECIALLY
DEWPOINT OBSERVATIONS.

SCZ001>056-GAZ040-063>065-077-112000-
...UPSTATE SOUTH CAROLINA...

CITY           SKY/WX    TMP DP  RH WIND       PRES   REMARKS
ANDERSON       SUNNY     47  21  35 VRB3      30.13F
LIBERTY        PTCLDY    47  22  37 NW9G16    30.11F
SPARTANBURG    SUNNY     45  18  33 W6        30.13F
CLEMSON        MOSUNNY   49  22  34 NE7       30.12F
GREENVILLE     MOSUNNY   45  20  36 W10G16    30.12F
GREENWOOD      SUNNY     50  20  30 VRB5      30.13F
GREER          PTSUNNY   46  20  35 VRB3      30.11F
ROCK HILL      SUNNY     44  18  35 W9        30.14F
LAURENS        CLEAR     46  23  39 W5        30.13F


...CENTRAL SOUTH CAROLINA...

CITY           SKY/WX    TMP DP  RH WIND       PRES   REMARKS
COLUMBIA APT   SUNNY     53  20  27 SW6       30.14F
COLUMBIA OWENS SUNNY     50  19  29 NW5       30.16F
MCENTIRE ANGB  SUNNY     51  20  29 VRB1      30.15F
ORANGEBURG     SUNNY     51  19  28 W9        30.16F
SUMTER SHAW    SUNNY     47  21  34 VRB7      30.14F
NEWBERRY       CLEAR     48  21  34 NW7       30.16F
AIKEN          FAIR      50  21  32 SW8       30.17F
BARNWELL       FAIR      55  23  28 CALM      30.15F
CAMDEN         FAIR      45  45 100 CALM      30.17F
LANCASTER      CLEAR     46  18  31 SW8       30.15F
WINNSBORO      CLEAR     45  21  39 CALM      30.15F


...EASTERN AND COASTAL SOUTH CAROLINA...

CITY           SKY/WX    TMP DP  RH WIND       PRES   REMARKS
MYRTLE BEACH   MOSUNNY   46  18  31 W12       30.20F
N MYRTLE BCH   SUNNY     46  17  31 W8        30.17F
CONWAY         FAIR      45  19  36 SW5       30.18F HAZE
MARION         FAIR      46  18  31 W9        30.18F
HARTSVILLE     FAIR      46  19  34 SW9       30.15F
FLORENCE       SUNNY     44  18  35 VRB6      30.17F
DARLINGTON     SUNNY     48  19  32 W12       30.17F
CHARLESTON APT SUNNY     55  20  25 VRB6      30.17F
MOUNT PLEASANT FAIR      52  23  32 CALM      30.18F
WALTERBORO     CLEAR     55  21  26 W5        30.16F
BEAUFORT       SUNNY     54  27  35 VRB3      30.17F


...EASTERN GEORGIA...

CITY           SKY/WX    TMP DP  RH WIND       PRES   REMARKS
AUGUSTA BUSH F SUNNY     53  19  26 NW7       30.14F
THOMSON        SUNNY     55  27  34 W3        30.18F
WASHINGTON     FAIR      55  30  38 CALM      30.13F
CLAXTON        FAIR      59  35  39 CALM      30.15F
SYLVANIA       CLEAR     56  29  36 SW5       30.15F
STATESBORO     SUNNY     60  14  16 CALM      30.14F
SAVANNAH       SUNNY     59  25  27 CALM      30.17F


...SOUTHERN NORTH CAROLINA...

CITY           SKY/WX    TMP DP  RH WIND       PRES   REMARKS
CHARLOTTE      SUNNY     44  15  31 SW8       30.14F
MONROE         SUNNY     44  18  35 W9        30.14
WADESBORO      CLEAR     44  13  28 W5        30.16F
ROCKINGHAM     CLEAR     43  15  32 NW7       30.16F
RUTHERFORDTON  SUNNY     45  18  33 W13G23    30.12S
ASHEVILLE      SUNNY     38  16  40 N15G25    30.08F WCI  29

$$




USA.gov is the U.S. government's official web portal to all federal, state and local government web resources and services.